CAPE
0 0 0 0 66 316 503 877 1078 944 852 823 721 1063 1164 1138 1150 1045 941 563 776 720
0 0 0 0 11 133 505 911 958 841 589 490 909 1328 1445 1409 1337 1163 948 718 761 603
0 0 0 0 0 75 389 621 620 578 544 626 1318 1513 1569 1532 1438 1132 681 514 646 496
0 0 0 0 0 90 419 567 694 576 584 884 1483 1670 1526 1391 1174 905 625 643 585 484
0 0 0 0 0 244 387 620 806 787 796 1215 1701 1664 1458 1359 886 657 550 521 518 402
0 0 0 0 4 291 550 710 805 925 865 1462 1641 1529 1412 1172 904 536 492 488 323 200
26 0 0 0 145 493 748 835 872 1048 1167 1643 1558 1398 1188 908 538 504 400 213 218 136
74 6 27 152 378 748 795 846 1068 1048 1604 1649 1464 1164 828 684 459 214 112 187 154 132
50 73 260 404 749 915 932 1055 1070 1455 1601 1546 1265 498 512 340 70 140 142 128 57 20
76 295 692 850 1077 933 890 1083 1435 1562 1483 1540 1029 291 240 5 123 148 132 105 38 13
257 707 1086 1131 979 947 1023 1439 1490 1354 1504 1344 708 146 0 0 157 133 121 86 53 22
888 1112 941 1086 1065 1165 1322 1292 1227 1299 1019 828 186 0 0 0 56 68 55 30 6 0
1201 1253 1277 1250 1135 1182 1166 1178 884 943 776 316 0 0 0 0 22 50 20 0 0 0
1701 1568 1233 1052 1061 1068 840 802 657 450 111 0 0 0 0 3 56 58 18 0 0 0
CIN
0 0 0 0 -412 -409 -388 -356 -310 -331 -344 -340 -335 -310 -273 -206 -145 -88 -65 -140 -79 -84
0 0 0 0 -521 -471 -426 -368 -331 -306 -340 -332 -322 -255 -190 -125 -82 -41 -45 -82 -60 -91
0 0 0 0 0 -514 -445 -399 -343 -330 -317 -308 -267 -203 -144 -62 -36 -33 -85 -87 -72 -77
0 0 0 0 0 -531 -421 -343 -324 -301 -290 -263 -215 -154 -106 -49 -40 -35 -64 -60 -62 -57
0 0 0 0 0 -499 -371 -348 -308 -264 -250 -221 -172 -118 -69 -43 -50 -63 -65 -76 -45 -36
0 0 0 0 -102 -455 -369 -336 -268 -243 -222 -202 -146 -88 -50 -34 -34 -68 -79 -65 -55 -48
-520 0 0 0 -496 -403 -358 -298 -260 -239 -216 -150 -104 -69 -53 -47 -55 -74 -80 -80 -52 -47
-532 -489 -561 -480 -423 -360 -321 -278 -245 -235 -156 -100 -76 -85 -75 -33 -70 -120 -118 -65 -44 -39
-541 -530 -418 -389 -344 -317 -280 -262 -246 -181 -124 -90 -96 -159 -91 -77 -171 -109 -73 -48 -59 -98
-474 -347 -314 -307 -288 -301 -304 -291 -194 -136 -122 -81 -82 -152 -109 -199 -122 -65 -65 -48 -70 -66
-286 -229 -250 -286 -326 -338 -318 -207 -169 -172 -86 -48 -76 -154 0 0 -69 -64 -42 -43 -58 -67
-134 -206 -323 -295 -323 -289 -218 -172 -182 -122 -100 -71 -159 0 0 0 -94 -64 -69 -104 -36 0
-140 -195 -242 -248 -261 -225 -190 -178 -175 -103 -73 -115 0 0 0 -4 -27 -73 -108 0 0 0
-47 -89 -166 -207 -206 -193 -203 -174 -122 -122 -193 0 0 0 0 -58 -57 -38 -86 0 0 0
Wind_Speed
46 43 41 38 36 34 31 25 23 20 18 16 16 16 15 17 17 15 13 10 9 10
49 46 45 41 37 37 32 25 22 19 18 17 16 15 15 17 15 14 11 8 9 10
50 47 44 42 40 39 34 26 23 21 19 17 15 14 15 15 13 12 10 7 9 9
50 47 42 37 35 35 34 30 28 25 20 17 15 14 14 12 12 9 7 7 7 9
49 46 41 37 32 30 30 29 28 23 19 17 15 13 11 11 9 6 5 6 6 10
50 46 40 35 31 28 27 25 23 21 18 15 14 12 10 8 6 4 5 4 9 8
51 45 38 33 28 25 23 22 21 19 15 14 12 10 8 6 5 5 5 7 7 5
49 42 36 31 27 23 22 20 19 17 14 12 10 9 7 6 4 5 6 5 4 6
47 42 35 29 25 22 21 18 16 16 14 12 10 8 9 6 4 4 3 3 4 7
43 38 31 26 24 22 20 17 15 14 12 11 9 11 10 5 4 3 3 2 4 5
38 34 28 25 23 21 18 16 15 13 11 9 9 12 8 3 2 3 2 3 4 5
33 29 26 24 21 18 16 14 14 11 10 10 10 10 6 3 2 2 2 4 5 6
29 26 24 21 19 16 14 12 11 11 11 10 8 7 7 2 0 1 3 5 7 7
21 21 19 18 15 14 12 11 13 13 10 8 7 7 5 4 0 2 3 5 6 7
Wind_Direction
269 269 269 266 265 268 268 265 269 264 268 276 289 295 298 304 306 309 303 303 311 326
266 265 265 265 264 264 267 264 265 260 268 281 286 289 296 303 306 305 298 297 309 324
263 262 263 264 261 259 262 263 260 261 269 275 279 283 293 303 307 300 296 295 309 327
261 260 260 262 260 256 257 258 259 259 263 268 273 281 293 300 304 290 287 296 308 325
260 257 256 257 258 254 254 257 253 251 256 262 268 278 284 296 290 278 271 291 315 323
257 253 251 252 255 252 251 247 241 243 252 256 265 273 283 282 263 265 274 300 315 322
253 247 246 247 250 244 239 233 234 243 249 254 261 267 276 259 249 274 301 313 320 330
248 241 240 242 240 235 226 228 235 242 246 249 253 266 242 226 246 282 311 320 333 337
240 233 231 233 228 220 222 226 233 238 238 243 260 236 192 206 265 296 315 328 336 334
228 223 223 220 217 217 220 224 225 232 239 248 243 183 181 211 285 297 314 338 344 356
214 213 213 212 212 215 217 220 228 235 239 221 208 171 181 184 315 320 344 337 357 3
202 202 202 204 207 211 215 220 234 231 208 195 179 177 177 155 316 340 360 347 2 2
200 202 200 202 203 210 217 224 225 205 193 186 191 187 158 171 5 342 350 347 355 360
189 194 196 201 206 207 213 208 193 189 197 213 206 182 172 167 287 339 342 348 356 356